Zeit;wasserstand;wasserstand_status;abfluss;abfluss_status
1988-11-01 00:00:00;25.0;0;;1
1988-11-02 00:00:00;28.0;0;;1
1988-11-03 00:00:00;24.0;0;;1
1988-11-04 00:00:00;24.0;0;;1
1988-11-05 00:00:00;22.0;0;;1
1988-11-06 00:00:00;22.0;0;;1
1988-11-07 00:00:00;22.0;0;;1
1988-11-08 00:00:00;24.0;0;;1
1988-11-09 00:00:00;22.0;0;;1
1988-11-10 00:00:00;36.0;0;;1
1988-11-11 00:00:00;33.0;0;;1
1988-11-12 00:00:00;39.0;0;;1
1988-11-13 00:00:00;41.0;0;;1
1988-11-14 00:00:00;42.0;0;;1
1988-11-15 00:00:00;40.0;0;;1
1988-11-16 00:00:00;33.0;0;;1
1988-11-17 00:00:00;29.0;0;;1
1988-11-18 00:00:00;27.0;0;;1
1988-11-19 00:00:00;26.0;0;;1
1988-11-20 00:00:00;25.0;0;;1
1988-11-21 00:00:00;25.0;0;;1
1988-11-22 00:00:00;25.0;0;;1
1988-11-23 00:00:00;27.0;0;;1
1988-11-24 00:00:00;30.0;0;;1
1988-11-25 00:00:00;27.0;0;;1
1988-11-26 00:00:00;25.0;0;;1
1988-11-27 00:00:00;24.0;0;;1
1988-11-28 00:00:00;26.0;0;;1
1988-11-29 00:00:00;32.0;0;;1
1988-11-30 00:00:00;26.0;0;;1
1988-12-01 00:00:00;24.0;0;;1
1988-12-02 00:00:00;24.0;0;;1
1988-12-03 00:00:00;23.0;0;;1
1988-12-04 00:00:00;31.0;0;;1
1988-12-05 00:00:00;54.0;0;;1
1988-12-06 00:00:00;47.0;0;;1
1988-12-07 00:00:00;35.0;0;;1
1988-12-08 00:00:00;34.0;0;;1
1988-12-09 00:00:00;34.0;0;;1
1988-12-10 00:00:00;33.0;0;;1
1988-12-11 00:00:00;32.0;0;;1
1988-12-12 00:00:00;33.0;0;;1
1988-12-13 00:00:00;29.0;0;;1
1988-12-14 00:00:00;28.0;0;;1
1988-12-15 00:00:00;27.0;0;;1
1988-12-16 00:00:00;27.0;0;;1
1988-12-17 00:00:00;27.0;0;;1
1988-12-18 00:00:00;39.0;0;;1
1988-12-19 00:00:00;40.0;0;;1
1988-12-20 00:00:00;32.0;0;;1
1988-12-21 00:00:00;31.0;0;;1
1988-12-22 00:00:00;30.0;0;;1
1988-12-23 00:00:00;38.0;0;;1
1988-12-24 00:00:00;35.0;0;;1
1988-12-25 00:00:00;33.0;0;;1
1988-12-26 00:00:00;32.0;0;;1
1988-12-27 00:00:00;29.0;0;;1
1988-12-28 00:00:00;25.0;0;;1
1988-12-29 00:00:00;24.0;0;;1
1988-12-30 00:00:00;24.0;0;;1
1988-12-31 00:00:00;23.0;0;;1
1989-01-01 00:00:00;24.0;0;;1
1989-01-02 00:00:00;26.0;0;;1
1989-01-03 00:00:00;25.0;0;;1
1989-01-04 00:00:00;25.0;0;;1
1989-01-05 00:00:00;28.0;0;;1
1989-01-06 00:00:00;28.0;0;;1
1989-01-07 00:00:00;27.0;0;;1
1989-01-08 00:00:00;30.0;0;;1
1989-01-09 00:00:00;28.0;0;;1
1989-01-10 00:00:00;32.0;0;;1
1989-01-11 00:00:00;29.0;0;;1
1989-01-12 00:00:00;28.0;0;;1
1989-01-13 00:00:00;28.0;0;;1
1989-01-14 00:00:00;29.0;0;;1
1989-01-15 00:00:00;27.0;0;;1
1989-01-16 00:00:00;26.0;0;;1
1989-01-17 00:00:00;27.0;0;;1
1989-01-18 00:00:00;26.0;0;;1
1989-01-19 00:00:00;25.0;0;;1
1989-01-20 00:00:00;24.0;0;;1
1989-01-21 00:00:00;24.0;0;;1
1989-01-22 00:00:00;24.0;0;;1
1989-01-23 00:00:00;26.0;0;;1
1989-01-24 00:00:00;23.0;0;;1
1989-01-25 00:00:00;23.0;0;;1
1989-01-26 00:00:00;23.0;0;;1
1989-01-27 00:00:00;22.0;0;;1
1989-01-28 00:00:00;22.0;0;;1
1989-01-29 00:00:00;22.0;0;;1
1989-01-30 00:00:00;22.0;0;;1
1989-01-31 00:00:00;22.0;0;;1
1989-03-01 00:00:00;26.0;0;;1
1989-03-02 00:00:00;29.0;0;;1
1989-03-03 00:00:00;26.0;0;;1
1989-03-04 00:00:00;26.0;0;;1
1989-03-05 00:00:00;25.0;0;;1
1989-03-06 00:00:00;24.0;0;;1
1989-03-07 00:00:00;23.0;0;;1
1989-03-08 00:00:00;23.0;0;;1
1989-03-09 00:00:00;22.0;0;;1
1989-03-10 00:00:00;22.0;0;;1
1989-03-11 00:00:00;21.0;0;;1
1989-03-12 00:00:00;21.0;0;;1
1989-03-13 00:00:00;23.0;0;;1
1989-03-14 00:00:00;23.0;0;;1
1989-03-15 00:00:00;32.0;0;;1
1989-03-16 00:00:00;27.0;0;;1
1989-03-17 00:00:00;25.0;0;;1
1989-03-18 00:00:00;23.0;0;;1
1989-03-19 00:00:00;23.0;0;;1
1989-03-20 00:00:00;22.0;0;;1
1989-03-21 00:00:00;24.0;0;;1
1989-03-22 00:00:00;35.0;0;;1
1989-03-23 00:00:00;31.0;0;;1
1989-03-24 00:00:00;36.0;0;;1
1989-03-25 00:00:00;33.0;0;;1
1989-03-26 00:00:00;27.0;0;;1
1989-03-27 00:00:00;25.0;0;;1
1989-03-28 00:00:00;22.0;0;;1
1989-03-29 00:00:00;22.0;0;;1
1989-03-30 00:00:00;21.0;0;;1
1989-03-31 00:00:00;19.0;0;;1
1989-04-01 00:00:00;19.0;0;;1
1989-04-02 00:00:00;18.0;0;;1
1989-04-03 00:00:00;18.0;0;;1
1989-04-04 00:00:00;18.0;0;;1
1989-04-05 00:00:00;18.0;0;;1
1989-04-06 00:00:00;19.0;0;;1
1989-04-07 00:00:00;19.0;0;;1
1989-04-08 00:00:00;18.0;0;;1
1989-04-09 00:00:00;18.0;0;;1
1989-04-10 00:00:00;19.0;0;;1
1989-04-11 00:00:00;19.0;0;;1
1989-04-12 00:00:00;28.0;0;;1
1989-04-13 00:00:00;28.0;0;;1
1989-04-14 00:00:00;24.0;0;;1
1989-04-15 00:00:00;20.0;0;;1
1989-04-16 00:00:00;19.0;0;;1
1989-04-17 00:00:00;19.0;0;;1
1989-04-18 00:00:00;20.0;0;;1
1989-04-19 00:00:00;34.0;0;;1
1989-04-20 00:00:00;31.0;0;;1
1989-04-21 00:00:00;33.0;0;;1
1989-04-22 00:00:00;29.0;0;;1
1989-04-23 00:00:00;25.0;0;;1
1989-04-24 00:00:00;23.0;0;;1
1989-04-25 00:00:00;24.0;0;;1
1989-04-26 00:00:00;31.0;0;;1
1989-04-27 00:00:00;35.0;0;;1
1989-04-28 00:00:00;27.0;0;;1
1989-04-29 00:00:00;25.0;0;;1
1989-04-30 00:00:00;23.0;0;;1
1989-05-01 00:00:00;22.0;0;;1
1989-05-02 00:00:00;22.0;0;;1
1989-05-03 00:00:00;24.0;0;;1
1989-05-04 00:00:00;21.0;0;;1
1989-05-05 00:00:00;24.0;0;;1
1989-05-06 00:00:00;22.0;0;;1
1989-05-07 00:00:00;21.0;0;;1
1989-05-08 00:00:00;21.0;0;;1
1989-05-09 00:00:00;22.0;0;;1
1989-05-10 00:00:00;22.0;0;;1
1989-05-11 00:00:00;20.0;0;;1
1989-05-12 00:00:00;21.0;0;;1
1989-05-13 00:00:00;20.0;0;;1
1989-05-14 00:00:00;19.0;0;;1
1989-05-15 00:00:00;18.0;0;;1
1989-05-16 00:00:00;18.0;0;;1
1989-05-17 00:00:00;18.0;0;;1
1989-05-18 00:00:00;17.0;0;;1
1989-05-19 00:00:00;16.0;0;;1
1989-05-20 00:00:00;16.0;0;;1
1989-05-21 00:00:00;16.0;0;;1
1989-05-22 00:00:00;16.0;0;;1
1989-05-23 00:00:00;16.0;0;;1
1989-05-24 00:00:00;15.0;0;;1
1989-05-25 00:00:00;16.0;0;;1
1989-05-26 00:00:00;16.0;0;;1
1989-05-27 00:00:00;16.0;0;;1
1989-05-28 00:00:00;16.0;0;;1
1989-05-29 00:00:00;17.0;0;;1
1989-05-30 00:00:00;19.0;0;;1
1989-05-31 00:00:00;17.0;0;;1
1989-06-01 00:00:00;17.0;0;;1
1989-06-02 00:00:00;18.0;0;;1
1989-06-03 00:00:00;18.0;0;;1
1989-06-04 00:00:00;20.0;0;;1
1989-06-05 00:00:00;25.0;0;;1
1989-06-06 00:00:00;22.0;0;;1
1989-06-07 00:00:00;21.0;0;;1
1989-06-08 00:00:00;21.0;0;;1
1989-06-09 00:00:00;20.0;0;;1
1989-06-10 00:00:00;20.0;0;;1
1989-06-11 00:00:00;21.0;0;;1
1989-06-12 00:00:00;22.0;0;;1
1989-06-13 00:00:00;21.0;0;;1
1989-06-14 00:00:00;23.0;0;;1
1989-06-15 00:00:00;24.0;0;;1
1989-06-16 00:00:00;24.0;0;;1
1989-06-17 00:00:00;22.0;0;;1
1989-06-18 00:00:00;27.0;0;;1
1989-06-19 00:00:00;24.0;0;;1
1989-06-20 00:00:00;24.0;0;;1
1989-06-21 00:00:00;24.0;0;;1
1989-06-22 00:00:00;25.0;0;;1
1989-06-23 00:00:00;27.0;0;;1
1989-06-24 00:00:00;27.0;0;;1
1989-06-25 00:00:00;26.0;0;;1
1989-06-26 00:00:00;26.0;0;;1
1989-06-27 00:00:00;26.0;0;;1
1989-06-28 00:00:00;26.0;0;;1
1989-06-29 00:00:00;31.0;0;;1
1989-06-30 00:00:00;30.0;0;;1
1989-07-01 00:00:00;31.0;0;;1
1989-07-02 00:00:00;31.0;0;;1
1989-07-03 00:00:00;30.0;0;;1
1989-07-04 00:00:00;28.0;0;;1
1989-07-05 00:00:00;27.0;0;;1
1989-07-06 00:00:00;30.0;0;;1
1989-07-07 00:00:00;29.0;0;;1
1989-07-08 00:00:00;31.0;0;;1
1989-07-09 00:00:00;27.0;0;;1
1989-07-10 00:00:00;32.0;0;;1
1989-07-11 00:00:00;31.0;0;;1
1989-07-12 00:00:00;30.0;0;;1
1989-07-13 00:00:00;30.0;0;;1
1989-07-14 00:00:00;32.0;0;;1
1989-07-15 00:00:00;31.0;0;;1
1989-07-16 00:00:00;30.0;0;;1
1989-07-17 00:00:00;31.0;0;;1
1989-07-18 00:00:00;30.0;0;;1
1989-07-19 00:00:00;29.0;0;;1
1989-07-20 00:00:00;29.0;0;;1
1989-07-21 00:00:00;29.0;0;;1
1989-07-22 00:00:00;27.0;0;;1
1989-07-23 00:00:00;28.0;0;;1
1989-07-24 00:00:00;34.0;0;;1
1989-07-25 00:00:00;30.0;0;;1
1989-07-26 00:00:00;29.0;0;;1
1989-07-27 00:00:00;30.0;0;;1
1989-07-28 00:00:00;29.0;0;;1
1989-07-29 00:00:00;28.0;0;;1
1989-07-30 00:00:00;33.0;0;;1
1989-07-31 00:00:00;42.0;0;;1
1989-08-01 00:00:00;40.0;0;;1
1989-08-02 00:00:00;37.0;0;;1
1989-08-03 00:00:00;36.0;0;;1
1989-08-04 00:00:00;35.0;0;;1
1989-08-05 00:00:00;32.0;0;;1
1989-08-06 00:00:00;33.0;0;;1
1989-08-07 00:00:00;32.0;0;;1
1989-08-08 00:00:00;34.0;0;;1
1989-08-09 00:00:00;32.0;0;;1
1989-08-10 00:00:00;30.0;0;;1
1989-08-11 00:00:00;31.0;0;;1
1989-08-12 00:00:00;32.0;0;;1
1989-08-13 00:00:00;36.0;0;;1
1989-08-14 00:00:00;35.0;0;;1
1989-08-15 00:00:00;33.0;0;;1
1989-08-16 00:00:00;34.0;0;;1
1989-08-17 00:00:00;35.0;0;;1
1989-08-18 00:00:00;33.0;0;;1
1989-08-19 00:00:00;33.0;0;;1
1989-08-20 00:00:00;33.0;0;;1
1989-08-21 00:00:00;32.0;0;;1
1989-08-22 00:00:00;34.0;0;;1
1989-08-23 00:00:00;36.0;0;;1
1989-08-24 00:00:00;39.0;0;;1
1989-08-25 00:00:00;46.0;0;;1
1989-08-26 00:00:00;49.0;0;;1
1989-08-27 00:00:00;53.0;0;;1
1989-08-28 00:00:00;80.0;0;;1
1989-08-29 00:00:00;64.0;0;;1
1989-08-30 00:00:00;55.0;0;;1
1989-08-31 00:00:00;52.0;0;;1
1989-09-01 00:00:00;50.0;0;;1
1989-09-02 00:00:00;50.0;0;;1
1989-09-03 00:00:00;49.0;0;;1
1989-09-04 00:00:00;47.0;0;;1
1989-09-05 00:00:00;46.0;0;;1
1989-09-06 00:00:00;46.0;0;;1
1989-09-07 00:00:00;44.0;0;;1
1989-09-08 00:00:00;44.0;0;;1
1989-09-09 00:00:00;43.0;0;;1
1989-09-10 00:00:00;42.0;0;;1
1989-09-11 00:00:00;41.0;0;;1
1989-09-12 00:00:00;40.0;0;;1
1989-09-13 00:00:00;41.0;0;;1
1989-09-14 00:00:00;46.0;0;;1
1989-09-15 00:00:00;47.0;0;;1
1989-09-16 00:00:00;45.0;0;;1
1989-09-17 00:00:00;43.0;0;;1
1989-09-18 00:00:00;41.0;0;;1
1989-09-19 00:00:00;45.0;0;;1
1989-09-20 00:00:00;45.0;0;;1
1989-09-21 00:00:00;44.0;0;;1
1989-09-22 00:00:00;44.0;0;;1
1989-09-23 00:00:00;45.0;0;;1
1989-09-24 00:00:00;45.0;0;;1
1989-09-25 00:00:00;44.0;0;;1
1989-09-26 00:00:00;44.0;0;;1
1989-09-27 00:00:00;43.0;0;;1
1989-09-28 00:00:00;41.0;0;;1
1989-09-29 00:00:00;41.0;0;;1
1989-09-30 00:00:00;41.0;0;;1
1989-10-01 00:00:00;41.0;0;;1
1989-10-02 00:00:00;41.0;0;;1
1989-10-03 00:00:00;40.0;0;;1
1989-10-04 00:00:00;39.0;0;;1
1989-10-05 00:00:00;39.0;0;;1
1989-10-06 00:00:00;40.0;0;;1
1989-10-07 00:00:00;45.0;0;;1
1989-10-08 00:00:00;40.0;0;;1
1989-10-09 00:00:00;40.0;0;;1
1989-10-10 00:00:00;40.0;0;;1
1989-10-11 00:00:00;41.0;0;;1
1989-10-12 00:00:00;41.0;0;;1
1989-10-13 00:00:00;43.0;0;;1
1989-10-14 00:00:00;47.0;0;;1
1989-10-15 00:00:00;51.0;0;;1
1989-10-16 00:00:00;47.0;0;;1
1989-10-17 00:00:00;45.0;0;;1
1989-10-18 00:00:00;43.0;0;;1
1989-10-19 00:00:00;41.0;0;;1
1989-10-20 00:00:00;42.0;0;;1
1989-10-21 00:00:00;48.0;0;;1
1989-10-22 00:00:00;44.0;0;;1
1989-10-23 00:00:00;44.0;0;;1
1989-10-24 00:00:00;47.0;0;;1
1989-10-25 00:00:00;43.0;0;;1
1989-10-26 00:00:00;42.0;0;;1
1989-10-27 00:00:00;41.0;0;;1
1989-10-28 00:00:00;40.0;0;;1
1989-10-29 00:00:00;42.0;0;;1
1989-10-30 00:00:00;52.0;0;;1
1989-10-31 00:00:00;49.0;0;;1
1989-11-01 00:00:00;45.0;0;;1
1989-11-02 00:00:00;44.0;0;;1
1989-11-03 00:00:00;43.0;0;;1
1989-11-04 00:00:00;42.0;0;;1
1989-11-05 00:00:00;47.0;0;;1
1989-11-06 00:00:00;42.0;0;;1
1989-11-07 00:00:00;42.0;0;;1
1989-11-08 00:00:00;42.0;0;;1
1989-11-09 00:00:00;41.0;0;;1
1989-11-10 00:00:00;41.0;0;;1
1989-11-11 00:00:00;40.0;0;;1
1989-11-12 00:00:00;39.0;0;;1
1989-11-13 00:00:00;41.0;0;;1
1989-11-14 00:00:00;43.0;0;;1
1989-11-15 00:00:00;40.0;0;;1
1989-11-16 00:00:00;39.0;0;;1
1989-11-17 00:00:00;39.0;0;;1
1989-11-18 00:00:00;38.0;0;;1
1989-11-19 00:00:00;48.0;0;;1
1989-11-20 00:00:00;43.0;0;;1
1989-11-21 00:00:00;36.0;0;;1
1989-11-22 00:00:00;36.0;0;;1
1989-11-23 00:00:00;36.0;0;;1
1989-11-24 00:00:00;37.0;0;;1
1989-11-25 00:00:00;39.0;0;;1
1989-11-26 00:00:00;43.0;0;;1
1989-11-27 00:00:00;40.0;0;;1
1989-11-28 00:00:00;41.0;0;;1
1989-11-29 00:00:00;41.0;0;;1
1989-11-30 00:00:00;39.0;0;;1
1989-12-01 00:00:00;35.0;0;;1
1989-12-02 00:00:00;35.0;0;;1
1989-12-03 00:00:00;30.0;0;;1
1989-12-04 00:00:00;21.0;0;;1
1989-12-05 00:00:00;15.0;0;;1
1989-12-06 00:00:00;15.0;0;;1
1989-12-07 00:00:00;14.0;0;;1
1989-12-08 00:00:00;15.0;0;;1
1989-12-09 00:00:00;14.0;0;;1
1989-12-10 00:00:00;13.0;0;;1
1989-12-11 00:00:00;14.0;0;;1
1989-12-12 00:00:00;13.0;0;;1
1989-12-13 00:00:00;13.0;0;;1
1989-12-14 00:00:00;15.0;0;;1
1989-12-15 00:00:00;45.0;0;;1
1989-12-16 00:00:00;32.0;0;;1
1989-12-17 00:00:00;26.0;0;;1
1989-12-18 00:00:00;20.0;0;;1
1989-12-19 00:00:00;20.0;0;;1
1989-12-20 00:00:00;23.0;0;;1
1989-12-21 00:00:00;41.0;0;;1
1989-12-22 00:00:00;27.0;0;;1
1989-12-23 00:00:00;23.0;0;;1
1989-12-24 00:00:00;20.0;0;;1
1989-12-25 00:00:00;18.0;0;;1
1989-12-26 00:00:00;17.0;0;;1
1989-12-27 00:00:00;18.0;0;;1
1989-12-28 00:00:00;16.0;0;;1
1989-12-29 00:00:00;18.0;0;;1
1989-12-30 00:00:00;17.0;0;;1
1989-12-31 00:00:00;16.0;0;;1
1990-01-01 00:00:00;17.0;0;;1
1990-01-02 00:00:00;17.0;0;;1
1990-01-03 00:00:00;17.0;0;;1
1990-01-04 00:00:00;16.0;0;;1
1990-01-05 00:00:00;17.0;0;;1
1990-01-06 00:00:00;16.0;0;;1
1990-01-07 00:00:00;16.0;0;;1
1990-01-08 00:00:00;18.0;0;;1
1990-01-09 00:00:00;18.0;0;;1
1990-01-10 00:00:00;18.0;0;;1
1990-01-11 00:00:00;20.0;0;;1
1990-01-12 00:00:00;19.0;0;;1
1990-01-13 00:00:00;18.0;0;;1
1990-01-14 00:00:00;17.0;0;;1
1990-01-15 00:00:00;20.0;0;;1
1990-01-16 00:00:00;21.0;0;;1
1990-01-17 00:00:00;24.0;0;;1
1990-01-18 00:00:00;24.0;0;;1
1990-01-19 00:00:00;24.0;0;;1
1990-01-20 00:00:00;23.0;0;;1
1990-01-21 00:00:00;22.0;0;;1
1990-01-22 00:00:00;22.0;0;;1
1990-01-23 00:00:00;26.0;0;;1
1990-01-24 00:00:00;32.0;0;;1
1990-01-25 00:00:00;45.0;0;;1
1990-01-26 00:00:00;37.0;0;;1
1990-01-27 00:00:00;32.0;0;;1
1990-01-28 00:00:00;28.0;0;;1
1990-01-29 00:00:00;25.0;0;;1
1990-01-30 00:00:00;24.0;0;;1
1990-01-31 00:00:00;22.0;0;;1
1990-02-01 00:00:00;21.0;0;;1
1990-02-02 00:00:00;22.0;0;;1
1990-02-03 00:00:00;30.0;0;;1
1990-02-04 00:00:00;31.0;0;;1
1990-02-05 00:00:00;26.0;0;;1
1990-02-06 00:00:00;24.0;0;;1
1990-02-07 00:00:00;24.0;0;;1
1990-02-08 00:00:00;25.0;0;;1
1990-02-09 00:00:00;23.0;0;;1
1990-02-10 00:00:00;22.0;0;;1
1990-02-11 00:00:00;23.0;0;;1
1990-02-12 00:00:00;25.0;0;;1
1990-02-13 00:00:00;26.0;0;;1
1990-02-14 00:00:00;31.0;0;;1
1990-02-15 00:00:00;27.0;0;;1
1990-02-16 00:00:00;30.0;0;;1
1990-02-17 00:00:00;26.0;0;;1
1990-02-18 00:00:00;25.0;0;;1
1990-02-19 00:00:00;23.0;0;;1
1990-02-20 00:00:00;22.0;0;;1
1990-02-21 00:00:00;22.0;0;;1
1990-02-22 00:00:00;21.0;0;;1
1990-02-23 00:00:00;21.0;0;;1
1990-02-24 00:00:00;20.0;0;;1
1990-02-25 00:00:00;20.0;0;;1
1990-02-26 00:00:00;25.0;0;;1
1990-02-27 00:00:00;29.0;0;;1
1990-02-28 00:00:00;29.0;0;;1
1990-03-01 00:00:00;30.0;0;;1
1990-03-02 00:00:00;30.0;0;;1
1990-03-03 00:00:00;27.0;0;;1
1990-03-04 00:00:00;27.0;0;;1
1990-03-05 00:00:00;26.0;0;;1
1990-03-06 00:00:00;37.0;0;;1
1990-03-07 00:00:00;37.0;0;;1
1990-03-08 00:00:00;31.0;0;;1
1990-03-09 00:00:00;29.0;0;;1
1990-03-10 00:00:00;30.0;0;;1
1990-03-11 00:00:00;31.0;0;;1
1990-03-12 00:00:00;27.0;0;;1
1990-03-13 00:00:00;25.0;0;;1
1990-03-14 00:00:00;24.0;0;;1
1990-03-15 00:00:00;23.0;0;;1
1990-03-16 00:00:00;22.0;0;;1
1990-03-17 00:00:00;21.0;0;;1
1990-03-18 00:00:00;21.0;0;;1
1990-03-19 00:00:00;21.0;0;;1
1990-03-20 00:00:00;23.0;0;;1
1990-03-21 00:00:00;21.0;0;;1
1990-03-22 00:00:00;20.0;0;;1
1990-03-23 00:00:00;21.0;0;;1
1990-03-24 00:00:00;21.0;0;;1
1990-03-25 00:00:00;22.0;0;;1
1990-03-26 00:00:00;21.0;0;;1
1990-03-27 00:00:00;20.0;0;;1
1990-03-28 00:00:00;19.0;0;;1
1990-03-29 00:00:00;18.0;0;;1
1990-03-30 00:00:00;18.0;0;;1
1990-03-31 00:00:00;18.0;0;;1
1990-04-01 00:00:00;18.0;0;;1
1990-04-02 00:00:00;17.0;0;;1
1990-04-03 00:00:00;18.0;0;;1
1990-04-04 00:00:00;18.0;0;;1
1990-04-05 00:00:00;17.0;0;;1
1990-04-06 00:00:00;17.0;0;;1
1990-04-07 00:00:00;19.0;0;;1
1990-04-08 00:00:00;17.0;0;;1
1990-04-09 00:00:00;16.0;0;;1
1990-04-10 00:00:00;16.0;0;;1
1990-04-11 00:00:00;17.0;0;;1
1990-04-12 00:00:00;16.0;0;;1
1990-04-13 00:00:00;17.0;0;;1
1990-04-14 00:00:00;16.0;0;;1
1990-04-15 00:00:00;17.0;0;;1
1990-04-16 00:00:00;18.0;0;;1
1990-04-17 00:00:00;18.0;0;;1
1990-04-18 00:00:00;17.0;0;;1
1990-04-19 00:00:00;17.0;0;;1
1990-04-20 00:00:00;19.0;0;;1
1990-04-21 00:00:00;18.0;0;;1
1990-04-22 00:00:00;17.0;0;;1
1990-04-23 00:00:00;17.0;0;;1
1990-04-24 00:00:00;18.0;0;;1
1990-04-25 00:00:00;14.0;0;;1
1990-04-26 00:00:00;14.0;0;;1
1990-04-27 00:00:00;15.0;0;;1
1990-04-28 00:00:00;15.0;0;;1
1990-04-29 00:00:00;15.0;0;;1
1990-04-30 00:00:00;15.0;0;;1
1990-05-01 00:00:00;14.0;0;;1
1990-05-02 00:00:00;14.0;0;;1
1990-05-03 00:00:00;14.0;0;;1
1990-05-04 00:00:00;14.0;0;;1
1990-05-05 00:00:00;13.0;0;;1
1990-05-06 00:00:00;13.0;0;;1
1990-05-07 00:00:00;13.0;0;;1
1990-05-08 00:00:00;13.0;0;;1
1990-05-09 00:00:00;16.0;0;;1
1990-05-10 00:00:00;15.0;0;;1
1990-05-11 00:00:00;17.0;0;;1
1990-05-12 00:00:00;13.0;0;;1
1990-05-13 00:00:00;18.0;0;;1
1990-05-14 00:00:00;15.0;0;;1
1990-05-15 00:00:00;18.0;0;;1
1990-05-16 00:00:00;15.0;0;;1
1990-05-17 00:00:00;15.0;0;;1
1990-05-18 00:00:00;14.0;0;;1
1990-05-19 00:00:00;13.0;0;;1
1990-05-20 00:00:00;14.0;0;;1
1990-05-21 00:00:00;14.0;0;;1
1990-05-22 00:00:00;14.0;0;;1
1990-05-23 00:00:00;14.0;0;;1
1990-05-24 00:00:00;14.0;0;;1
1990-05-25 00:00:00;15.0;0;;1
1990-05-26 00:00:00;14.0;0;;1
1990-05-27 00:00:00;14.0;0;;1
1990-05-28 00:00:00;14.0;0;;1
1990-05-29 00:00:00;15.0;0;;1
1990-05-30 00:00:00;14.0;0;;1
1990-05-31 00:00:00;14.0;0;;1
1990-06-01 00:00:00;14.0;0;;1
1990-06-02 00:00:00;17.0;0;;1
1990-06-03 00:00:00;18.0;0;;1
1990-06-04 00:00:00;25.0;0;;1
1990-06-05 00:00:00;22.0;0;;1
1990-06-06 00:00:00;21.0;0;;1
1990-06-07 00:00:00;21.0;0;;1
1990-06-08 00:00:00;26.0;0;;1
1990-06-09 00:00:00;27.0;0;;1
1990-06-10 00:00:00;26.0;0;;1
1990-06-11 00:00:00;23.0;0;;1
1990-06-12 00:00:00;22.0;0;;1
1990-06-13 00:00:00;22.0;0;;1
1990-06-14 00:00:00;22.0;0;;1
1990-06-15 00:00:00;24.0;0;;1
1990-06-16 00:00:00;27.0;0;;1
1990-06-17 00:00:00;22.0;0;;1
1990-06-18 00:00:00;23.0;0;;1
1990-06-19 00:00:00;22.0;0;;1
1990-06-20 00:00:00;29.0;0;;1
1990-06-21 00:00:00;27.0;0;;1
1990-06-22 00:00:00;26.0;0;;1
1990-06-23 00:00:00;29.0;0;;1
1990-06-24 00:00:00;31.0;0;;1
1990-06-25 00:00:00;30.0;0;;1
1990-06-26 00:00:00;34.0;0;;1
1990-06-27 00:00:00;32.0;0;;1
1990-06-28 00:00:00;31.0;0;;1
1990-06-29 00:00:00;31.0;0;;1
1990-06-30 00:00:00;30.0;0;;1
1990-07-01 00:00:00;30.0;0;;1
1990-07-02 00:00:00;33.0;0;;1
1990-07-03 00:00:00;35.0;0;;1
1990-07-04 00:00:00;33.0;0;;1
1990-07-05 00:00:00;33.0;0;;1
1990-07-06 00:00:00;58.0;0;;1
1990-07-07 00:00:00;70.0;0;;1
1990-07-08 00:00:00;48.0;0;;1
1990-07-09 00:00:00;42.0;0;;1
1990-07-10 00:00:00;48.0;0;;1
1990-07-11 00:00:00;51.0;0;;1
1990-07-12 00:00:00;43.0;0;;1
1990-07-13 00:00:00;40.0;0;;1
1990-07-14 00:00:00;38.0;0;;1
1990-07-15 00:00:00;37.0;0;;1
1990-07-16 00:00:00;36.0;0;;1
1990-07-17 00:00:00;35.0;0;;1
1990-07-18 00:00:00;35.0;0;;1
1990-07-19 00:00:00;36.0;0;;1
1990-07-20 00:00:00;40.0;0;;1
1990-07-21 00:00:00;35.0;0;;1
1990-07-22 00:00:00;34.0;0;;1
1990-07-23 00:00:00;34.0;0;;1
1990-07-24 00:00:00;35.0;0;;1
1990-07-25 00:00:00;35.0;0;;1
1990-07-26 00:00:00;35.0;0;;1
1990-07-27 00:00:00;35.0;0;;1
1990-07-28 00:00:00;34.0;0;;1
1990-07-29 00:00:00;36.0;0;;1
1990-07-30 00:00:00;36.0;0;;1
1990-07-31 00:00:00;35.0;0;;1
1990-08-01 00:00:00;35.0;0;;1
1990-08-02 00:00:00;34.0;0;;1
1990-08-03 00:00:00;33.0;0;;1
1990-08-04 00:00:00;32.0;0;;1
1990-08-05 00:00:00;32.0;0;;1
1990-08-06 00:00:00;32.0;0;;1
1990-08-07 00:00:00;38.0;0;;1
1990-08-08 00:00:00;33.0;0;;1
1990-08-09 00:00:00;34.0;0;;1
1990-08-10 00:00:00;39.0;0;;1
1990-08-11 00:00:00;35.0;0;;1
1990-08-12 00:00:00;34.0;0;;1
1990-08-13 00:00:00;33.0;0;;1
1990-08-14 00:00:00;36.0;0;;1
1990-08-15 00:00:00;37.0;0;;1
1990-08-16 00:00:00;37.0;0;;1
1990-08-17 00:00:00;39.0;0;;1
1990-08-18 00:00:00;38.0;0;;1
1990-08-19 00:00:00;37.0;0;;1
1990-08-20 00:00:00;54.0;0;;1
1990-08-21 00:00:00;74.0;0;;1
1990-08-22 00:00:00;53.0;0;;1
1990-08-23 00:00:00;46.0;0;;1
1990-08-24 00:00:00;43.0;0;;1
1990-08-25 00:00:00;42.0;0;;1
1990-08-26 00:00:00;40.0;0;;1
1990-08-27 00:00:00;40.0;0;;1
1990-08-28 00:00:00;38.0;0;;1
1990-08-29 00:00:00;39.0;0;;1
1990-08-30 00:00:00;39.0;0;;1
1990-08-31 00:00:00;42.0;0;;1
1990-09-01 00:00:00;43.0;0;;1
1990-09-02 00:00:00;41.0;0;;1
1990-09-03 00:00:00;39.0;0;;1
1990-09-04 00:00:00;46.0;0;;1
1990-09-05 00:00:00;43.0;0;;1
1990-09-06 00:00:00;43.0;0;;1
1990-09-07 00:00:00;44.0;0;;1
1990-09-08 00:00:00;44.0;0;;1
1990-09-09 00:00:00;43.0;0;;1
1990-09-10 00:00:00;41.0;0;;1
1990-09-11 00:00:00;39.0;0;;1
1990-09-12 00:00:00;40.0;0;;1
1990-09-13 00:00:00;40.0;0;;1
1990-09-14 00:00:00;38.0;0;;1
1990-09-15 00:00:00;37.0;0;;1
1990-09-16 00:00:00;38.0;0;;1
1990-09-17 00:00:00;36.0;0;;1
1990-09-18 00:00:00;37.0;0;;1
1990-09-19 00:00:00;41.0;0;;1
1990-09-20 00:00:00;53.0;0;;1
1990-09-21 00:00:00;70.0;0;;1
1990-09-22 00:00:00;75.0;0;;1
1990-09-23 00:00:00;68.0;0;;1
1990-09-24 00:00:00;69.0;0;;1
1990-09-25 00:00:00;79.0;0;;1
1990-09-26 00:00:00;67.0;0;;1
1990-09-27 00:00:00;58.0;0;;1
1990-09-28 00:00:00;54.0;0;;1
1990-09-29 00:00:00;55.0;0;;1
1990-09-30 00:00:00;56.0;0;;1
1990-10-01 00:00:00;55.0;0;;1
1990-10-02 00:00:00;50.0;0;;1
1990-10-03 00:00:00;48.0;0;;1
1990-10-04 00:00:00;52.0;0;;1
1990-10-05 00:00:00;47.0;0;;1
1990-10-06 00:00:00;61.0;0;;1
1990-10-07 00:00:00;58.0;0;;1
1990-10-08 00:00:00;55.0;0;;1
1990-10-09 00:00:00;51.0;0;;1
1990-10-10 00:00:00;47.0;0;;1
1990-10-11 00:00:00;48.0;0;;1
1990-10-12 00:00:00;46.0;0;;1
1990-10-13 00:00:00;53.0;0;;1
1990-10-14 00:00:00;61.0;0;;1
1990-10-15 00:00:00;54.0;0;;1
1990-10-16 00:00:00;50.0;0;;1
1990-10-17 00:00:00;47.0;0;;1
1990-10-18 00:00:00;43.0;0;;1
1990-10-19 00:00:00;42.0;0;;1
1990-10-20 00:00:00;46.0;0;;1
1990-10-21 00:00:00;51.0;0;;1
1990-10-22 00:00:00;45.0;0;;1
1990-10-23 00:00:00;51.0;0;;1
1990-10-24 00:00:00;45.0;0;;1
1990-10-25 00:00:00;24.0;0;;1
1990-10-26 00:00:00;15.0;0;;1
1990-10-27 00:00:00;19.0;0;;1
1990-10-28 00:00:00;15.0;0;;1
1990-10-29 00:00:00;24.0;0;;1
1990-10-30 00:00:00;23.0;0;;1
1990-10-31 00:00:00;18.0;0;;1
1990-11-01 00:00:00;21.0;0;;1
1990-11-02 00:00:00;26.0;0;;1
1990-11-03 00:00:00;30.0;0;;1
1990-11-04 00:00:00;29.0;0;;1
1990-11-05 00:00:00;22.0;0;;1
1990-11-06 00:00:00;22.0;0;;1
1990-11-07 00:00:00;22.0;0;;1
1990-11-08 00:00:00;28.0;0;;1
1990-11-09 00:00:00;21.0;0;;1
1990-11-10 00:00:00;24.0;0;;1
1990-11-11 00:00:00;22.0;0;;1
1990-11-12 00:00:00;16.0;0;;1
1990-11-13 00:00:00;15.0;0;;1
1990-11-14 00:00:00;18.0;0;;1
1990-11-15 00:00:00;17.0;0;;1
1990-11-16 00:00:00;20.0;0;;1
1990-11-17 00:00:00;39.0;0;;1
1990-11-18 00:00:00;47.0;0;;1
1990-11-19 00:00:00;51.0;0;;1
1990-11-20 00:00:00;47.0;0;;1
1990-11-21 00:00:00;42.0;0;;1
1990-11-22 00:00:00;34.0;0;;1
1990-11-23 00:00:00;33.0;0;;1
1990-11-24 00:00:00;34.0;0;;1
1990-11-25 00:00:00;28.0;0;;1
1990-11-26 00:00:00;35.0;0;;1
1990-11-27 00:00:00;36.0;0;;1
1990-11-28 00:00:00;28.0;0;;1
1990-11-29 00:00:00;29.0;0;;1
1990-11-30 00:00:00;26.0;0;;1
1990-12-01 00:00:00;25.0;0;;1
1990-12-02 00:00:00;23.0;0;;1
1990-12-03 00:00:00;25.0;0;;1
1990-12-04 00:00:00;26.0;0;;1
1990-12-05 00:00:00;23.0;0;;1
1990-12-06 00:00:00;22.0;0;;1
1990-12-07 00:00:00;22.0;0;;1
1990-12-08 00:00:00;22.0;0;;1
1990-12-09 00:00:00;20.0;0;;1
1990-12-10 00:00:00;20.0;0;;1
1990-12-11 00:00:00;20.0;0;;1
1990-12-12 00:00:00;27.0;0;;1
1990-12-13 00:00:00;24.0;0;;1
1990-12-14 00:00:00;22.0;0;;1
1990-12-15 00:00:00;24.0;0;;1
1990-12-16 00:00:00;22.0;0;;1
1990-12-17 00:00:00;20.0;0;;1
1990-12-18 00:00:00;19.0;0;;1
1990-12-19 00:00:00;20.0;0;;1
1990-12-20 00:00:00;22.0;0;;1
1990-12-21 00:00:00;26.0;0;;1
1990-12-22 00:00:00;23.0;0;;1
1990-12-23 00:00:00;22.0;0;;1
1990-12-24 00:00:00;22.0;0;;1
1990-12-25 00:00:00;21.0;0;;1
1990-12-26 00:00:00;24.0;0;;1
1990-12-27 00:00:00;36.0;0;;1
1990-12-28 00:00:00;38.0;0;;1
1990-12-29 00:00:00;41.0;0;;1
1990-12-30 00:00:00;39.0;0;;1
1990-12-31 00:00:00;31.0;0;;1
1991-01-01 00:00:00;28.0;0;;1
1991-01-02 00:00:00;31.0;0;;1
1991-01-03 00:00:00;28.0;0;;1
1991-01-04 00:00:00;27.0;0;;1
1991-01-05 00:00:00;25.0;0;;1
1991-01-06 00:00:00;27.0;0;;1
1991-01-07 00:00:00;26.0;0;;1
1991-01-08 00:00:00;25.0;0;;1
1991-01-09 00:00:00;26.0;0;;1